Rutland, VT

10:35 PM EST on December 21, 2014 (GMT -0500)
Hartness State | Change Station
CLOSE
Current Station
Airport
Location: Springfield,
Elevation: 574 ft
Nearby Weather Stations

Elev 574 ft 43.34 °N, 72.52 °W | Updated 12 minutes ago

Overcast
Overcast
28 °F
Feels Like 28 °F
N
0
Wind Variable Wind from North

Today
High -- | Low -- °F
--% Chance of Precip.
Yesterday
High -- | Low -- °F
Precip. -- in
7:22 AM 4:18 PM
New Moon, 0% visible
Pressure 30.36 in
Visibility 5.0 miles
Clouds Scattered Clouds 2800 ft
Overcast 4300 ft
Dew Point 27 °F
Humidity 96%
Rainfall 0.02 in
Snow Depth Not available.
UV 0 out of 12
Pollen .10 out of 12
Air Quality Not available.
Flu Activity Not available.
SPECI KVSF 220323Z AUTO 00000KT 5SM BR SCT028 OVC043 M02/M03 A3036 RMK AO2 T10221028 TSNO

More Conditions Fewer Conditions

Pressure 30.36 in
Visibility 5.0 miles
Clouds Scattered Clouds 2800 ft
Overcast 4300 ft
Dew Point 27 °F
Humidity 96%
Rainfall 0.02 in
Snow Depth Not available.
UV 0 out of 12
Pollen .10 out of 12
Air Quality Not available.
Flu Activity Not available.
SPECI KVSF 220323Z AUTO 00000KT 5SM BR SCT028 OVC043 M02/M03 A3036 RMK AO2 T10221028 TSNO

More Conditions Fewer Conditions

10-Day Weather Forecast

Almanac

Astronomy

Dec. 21, 2014 Rise Set
Actual Time
Civil Twilight
Nautical Twilight
Astronomical Twilight
Moon
Length of Visible Light
Length of Day
Tomorrow will be .
, % of the Moon is Illuminated

Today's Extremes

State Highs State Lows

Community

WunderPhotos

Upload Photos

1,779,531 photos uploaded!

WunderBlogs® & News

Nearby

Air Quality

  Air Quality AQ Index Pollutant
Not available.

Snow Depth

Station Depth Elevation

Earthquake Activity

City Distance Mag. Time & Date
Minimum magnitude displayed is 2.5.

Coastal Water Temperatures

Place Temperature

Nearby Weather Stations